Preview of NWS' New Version of Forecast
This preview is not operational and should not be used for support decisions.

Regional Weather Roundup (RWR)

Issued by National Weather Service (NWS)

                            
000
ASCA42 TJSJ 201110
RWRPR 
PUERTO RICO/U.S. VIRGIN ISLANDS HOURLY WEATHER ROUNDUP
NATIONAL WEATHER SERVICE SAN JUAN PR
700 AM AST WED FEB 20 2019

PRZ001>002-007>008-010-201200-
PUERTO RICO
  
CITY           SKY/WX    TMP DP  RH WIND       PRES   REMARKS
SAN JUAN LMM   LGT RAIN  73  70  88 SE5       30.10R                  
AGUADILLA      RAIN      72  63  73 SE5       30.10                   
CEIBA          CLOUDY    73  70  88 NE14G21   30.10R                  
$$

VIZ001>002-201200-
U.S. VIRGIN ISLANDS
  
CITY           SKY/WX    TMP DP  RH WIND       PRES   REMARKS
CHARLOTTE AMA  MOCLDY    73  70  88 E13       30.09R                  
CHRISTIANSTED  CLOUDY    75  70  83 NE9       30.08R                  
$$

HOURLY WEATHER ROUNDUP FOR THE NEWS MEDIA
  
CITY           SKY/WX    TMP DP  RH WIND       PRES   REMARKS
ORLANDO        FAIR      68  66  93 E6        30.11R                  
NEW YORK       CLOUDY    27  12  53 NE8       30.60F WCI  19          
NEWARK         CLOUDY    27   8  44 N6        30.59F WCI  20          
CHICAGO        LGT SNOW  29  24  82 E15       30.06F WCI  18          
HARTFORD       FAIR      17   8  67 CALM      30.60S                  
BOSTON         MOCLDY    22   5  48 W10       30.60R WCI  11          
DALLAS         CLOUDY    39  35  86 W14       29.94S WCI  31          
PHILADELPHIA   CLOUDY    31  10  41 NE7       30.57F WCI  24          
LOS ANGELES    PTCLDY    44  33  65 E5        30.06F                  
WASHINGTON DC  LGT SNOW  29  27  92 SE6       30.54S VSB 1   WCI  23